Volver al catálogo

STARLINK-36122

ActivoComunicacionesVLEO
NORAD 66952·PAYLOAD·🇺🇸 United States

Lanzado Dec 7, 2025 desde Vandenberg Space Force Base

Loading…

Próximos Pases (próximas 24 horas)

TLE

ActualizadoSource: CelesTrak SupGP

Época: Sep 14, 2026, 21:15 UTC

1 66952C 25286AD  26257.88590278  .00015306  00000+0  45108-3 0  2572
2 66952  53.1574 195.8512 0001002 103.3096  22.6904 15.34462863    17

Sigue STARLINK-36122 en tiempo real con AllMySat

Download on the App Store